Regional Weather Roundup
Issued by NWS

Home | Current Version | Previous Version | Graphics & Text | Print | Product List | Glossary On
Versions: 1 2 3 4 5 6 7 8 9 10 11 12 13 14 15 16 17 18 19 20 21 22 23 24 25 26 27 28 29 30 31 32 33 34 35 36 37 38 39 40 41 42 43 44 45 46 47 48 49 50
000
ASUS43 KFSD 181910
RWRSD

WEATHER ROUNDUP FOR SOUTH DAKOTA
NATIONAL WEATHER SERVICE SIOUX FALLS SD
200 PM CDT WED OCT 18 2017

NOTE: "FAIR" INDICATES FEW OR NO CLOUDS BELOW 12,000 FEET WITH NO
SIGNIFICANT WEATHER AND/OR OBSTRUCTIONS TO VISIBILITY.


SDZ001>005-009-010-012>017-182000-
NORTHWEST AND NORTH CENTRAL SOUTH DAKOTA

CITY           SKY/WX    TMP DP  RH WIND       PRES   REMARKS
BUFFALO          N/A     58  20  22 W7        30.00F
FAITH            N/A     60  18  19 NW8       30.05F
MOBRIDGE       SUNNY     61  22  22 NW13      30.00F
$$

SDZ012>016-024>037-041>051-057-063-072>074-182000-
SOUTHWEST AND SOUTH CENTRAL SOUTH DAKOTA

CITY           SKY/WX    TMP DP  RH WIND       PRES   REMARKS
RAPID CTY ARPT SUNNY     61  23  23 W7        30.08F
PIERRE         SUNNY     64  26  23 NW12G18   30.03F
CUSTER         SUNNY     60  21  22 S9        30.12F
ELLSWORTH AFB  SUNNY     61  22  22 N6        30.07F
PHILIP         SUNNY     65  25  22 MISG      30.07F
PINE RIDGE     SUNNY     65  29  25 CALM      30.11F
SPEARFISH      FAIR      57  27  30 NE6       30.08F
WINNER         FAIR      68  33  27 N15G22    30.05R
$$

SDZ004>011-016>023-039-040-182000-
NORTHEAST SOUTH DAKOTA

CITY           SKY/WX    TMP DP  RH WIND       PRES   REMARKS
ABERDEEN       PTSUNNY   57  27  31 NW10      30.00R
WATERTOWN      SUNNY     62  28  27 N15G23    29.95R
BROOKINGS      SUNNY     67  30  25 N20G28    29.94R
SISSETON         N/A     58  25  28 NW14      29.93R
$$

SDZ017-020-022-023-036>040-048>070-182000-
SOUTHEAST SOUTH DAKOTA

CITY           SKY/WX    TMP DP  RH WIND       PRES   REMARKS
SIOUX FALLS    MOSUNNY   73  40  30 NE13      29.93S
HURON          SUNNY     65  27  23 N16G24    29.98R
CHAMBERLAIN    SUNNY     70  33  25 N13       30.02S
MITCHELL       SUNNY     70  33  25 N20       29.99R
YANKTON        SUNNY     73  37  27 NE13      29.94S
$$

ABBREVIATIONS USED IN REMARKS
   TC - TEMPERATURE IN CELSIUS
  WCI - WIND CHILL INDEX
   HX - HEAT INDEX
  VSB - VISIBILITY





USA.gov is the U.S. government's official web portal to all federal, state and local government web resources and services.